Hourly Weather Aller

Today, 2 December, Wednesday

Time Temperature Precipitation Wind Pressure Humidity
00:00 +5°C° 0.2 mm 1 mps 676 mmHg 91%
01:00 +4°C° 0.2 mm 2 mps 675 mmHg 92%
02:00 +4°C° 0.2 mm 2 mps 675 mmHg 94%
03:00 +4°C° 0.2 mm 2 mps 675 mmHg 96%
04:00 +4°C° 0.1 mm 2 mps 675 mmHg 95%
05:00 +3°C° 0.1 mm 2 mps 675 mmHg 95%
06:00 +2°C° 0.1 mm 2 mps 675 mmHg 94%
07:00 +2°C° 0 mm 2 mps 675 mmHg 92%
08:00 +2°C° 0 mm 2 mps 675 mmHg 90%
09:00 +2°C° 0 mm 2 mps 675 mmHg 89%
10:00 +3°C° 0 mm 2 mps 675 mmHg 89%
11:00 +3°C° 0 mm 2 mps 675 mmHg 90%
12:00 +3°C° 0 mm 2 mps 675 mmHg 90%
13:00 +3°C° 0.1 mm 2 mps 674 mmHg 91%
14:00 +3°C° 0.1 mm 2 mps 674 mmHg 92%
15:00 +3°C° 0.1 mm 2 mps 674 mmHg 92%
16:00 +3°C° 0 mm 2 mps 674 mmHg 93%
17:00 +3°C° 0 mm 2 mps 674 mmHg 94%
18:00 +3°C° 0 mm 2 mps 674 mmHg 95%
19:00 +3°C° 0 mm 2 mps 674 mmHg 94%
20:00 +4°C° 0 mm 1 mps 674 mmHg 94%
21:00 +4°C° 0 mm 1 mps 674 mmHg 93%
22:00 +4°C° 0 mm 1 mps 674 mmHg 92%
23:00 +4°C° 0 mm 1 mps 673 mmHg 92%

Tomorrow, 3 December, Thursday

Time Temperature Precipitation Wind Pressure Humidity
00:00 +4°C° 0 mm 1 mps 673 mmHg 91%
01:00 +4°C° 0 mm 1 mps 673 mmHg 91%
02:00 +4°C° 0 mm 1 mps 672 mmHg 91%
03:00 +4°C° 0 mm 1 mps 672 mmHg 90%
04:00 +3°C° 0 mm 1 mps 671 mmHg 90%
05:00 +3°C° 0 mm 1 mps 670 mmHg 89%
06:00 +2°C° 0 mm 1 mps 670 mmHg 88%
07:00 +3°C° 0 mm 1 mps 669 mmHg 86%
08:00 +3°C° 0 mm 1 mps 669 mmHg 83%
09:00 +4°C° 0 mm 1 mps 669 mmHg 81%
10:00 +4°C° 0 mm 2 mps 668 mmHg 76%
11:00 +5°C° 0 mm 2 mps 667 mmHg 71%
12:00 +6°C° 0 mm 2 mps 667 mmHg 66%
13:00 +6°C° 0 mm 2 mps 666 mmHg 70%
14:00 +4°C° 0 mm 3 mps 664 mmHg 73%
15:00 +3°C° 0 mm 3 mps 663 mmHg 77%
16:00 +3°C° 0.4 mm 3 mps 662 mmHg 82%
17:00 +2°C° 0.4 mm 3 mps 661 mmHg 86%
18:00 +2°C° 0.4 mm 3 mps 660 mmHg 91%
19:00 +1°C° 0.8 mm 3 mps 659 mmHg 92%
20:00 +1°C° 0.8 mm 3 mps 659 mmHg 92%
21:00 0°C° 0.8 mm 4 mps 658 mmHg 93%
22:00 0°C° 2.4 mm 4 mps 657 mmHg 94%
23:00 0°C° 2.4 mm 4 mps 657 mmHg 95%

Day after tomorrow, 4 December, Friday

Time Temperature Precipitation Wind Pressure Humidity
00:00 -1°C° 2.4 mm 4 mps 657 mmHg 96%
01:00 -2°C° 2.1 mm 4 mps 656 mmHg 96%
02:00 -1°C° 2.1 mm 3 mps 656 mmHg 95%
03:00 -2°C° 2.1 mm 3 mps 655 mmHg 95%
04:00 -4°C° 1.1 mm 3 mps 655 mmHg 95%
05:00 -3°C° 1.1 mm 2 mps 655 mmHg 96%
06:00 -3°C° 1.1 mm 2 mps 655 mmHg 96%
07:00 -3°C° 1 mm 2 mps 655 mmHg 96%
08:00 -3°C° 1 mm 2 mps 655 mmHg 95%
09:00 -3°C° 1 mm 2 mps 656 mmHg 95%
10:00 -3°C° 0.4 mm 2 mps 656 mmHg 92%
11:00 -2°C° 0.4 mm 3 mps 656 mmHg 89%
12:00 -2°C° 0.4 mm 3 mps 656 mmHg 87%
13:00 -2°C° 0.9 mm 3 mps 656 mmHg 89%
14:00 -2°C° 0.9 mm 3 mps 655 mmHg 91%
15:00 -2°C° 0.9 mm 3 mps 655 mmHg 93%
16:00 -2°C° 1.3 mm 2 mps 656 mmHg 94%
17:00 -2°C° 1.3 mm 2 mps 656 mmHg 95%
18:00 -3°C° 1.3 mm 2 mps 656 mmHg 96%
19:00 -3°C° 1.9 mm 2 mps 657 mmHg 96%
20:00 -2°C° 1.9 mm 2 mps 657 mmHg 96%
21:00 -2°C° 1.9 mm 3 mps 658 mmHg 96%
22:00 -4°C° 1 mm 3 mps 658 mmHg 96%
23:00 -4°C° 1 mm 3 mps 658 mmHg 95%

5 December, Saturday

Time Temperature Precipitation Wind Pressure Humidity
00:00 -4°C° 1 mm 3 mps 658 mmHg 94%
01:00 -3°C° 0.4 mm 2 mps 658 mmHg 94%
02:00 -4°C° 0.4 mm 2 mps 657 mmHg 94%
03:00 -5°C° 0.4 mm 2 mps 657 mmHg 93%
04:00 -4°C° 1.4 mm 2 mps 658 mmHg 94%
05:00 -3°C° 1.4 mm 2 mps 658 mmHg 94%
06:00 -4°C° 1.4 mm 3 mps 659 mmHg 95%
07:00 -2°C° 1.2 mm 3 mps 659 mmHg 95%
08:00 -2°C° 1.2 mm 3 mps 660 mmHg 95%
09:00 -2°C° 1.2 mm 3 mps 660 mmHg 96%
10:00 -2°C° 1.8 mm 3 mps 660 mmHg 95%
11:00 -1°C° 1.8 mm 3 mps 661 mmHg 95%
12:00 -1°C° 1.8 mm 3 mps 661 mmHg 95%
13:00 -1°C° 1.4 mm 3 mps 661 mmHg 95%
14:00 -1°C° 1.4 mm 3 mps 661 mmHg 95%
15:00 -2°C° 1.4 mm 2 mps 661 mmHg 96%
16:00 -2°C° 1.4 mm 2 mps 662 mmHg 96%
17:00 -2°C° 1.4 mm 2 mps 662 mmHg 96%
18:00 -2°C° 1.4 mm 2 mps 662 mmHg 96%
19:00 -2°C° 2.1 mm 2 mps 662 mmHg 96%
20:00 -2°C° 2.1 mm 3 mps 663 mmHg 96%
21:00 -2°C° 2.1 mm 3 mps 663 mmHg 96%
22:00 -2°C° 1.3 mm 3 mps 663 mmHg 96%
23:00 -2°C° 1.3 mm 3 mps 663 mmHg 96%

6 December, Sunday

Time Temperature Precipitation Wind Pressure Humidity
00:00 -2°C° 1.3 mm 3 mps 664 mmHg 96%
01:00 -2°C° 0.3 mm 3 mps 663 mmHg 95%
02:00 -4°C° 0.3 mm 3 mps 663 mmHg 94%
03:00 -3°C° 0.3 mm 2 mps 663 mmHg 94%
04:00 -4°C° 0.2 mm 2 mps 663 mmHg 92%
05:00 -4°C° 0.2 mm 2 mps 662 mmHg 90%
06:00 -4°C° 0.2 mm 2 mps 662 mmHg 89%
07:00 -4°C° 0.1 mm 2 mps 662 mmHg 90%
08:00 -3°C° 0.1 mm 2 mps 662 mmHg 91%
09:00 -3°C° 0.1 mm 2 mps 662 mmHg 92%
10:00 -2°C° 0.9 mm 2 mps 662 mmHg 94%
11:00 +1°C° 0.9 mm 1 mps 662 mmHg 95%
12:00 +1°C° 0.9 mm 1 mps 662 mmHg 97%
13:00 +2°C° 0.5 mm 1 mps 662 mmHg 96%
14:00 +1°C° 0.5 mm 2 mps 662 mmHg 96%
15:00 +2°C° 0.5 mm 2 mps 662 mmHg 96%
16:00 +1°C° 0.3 mm 2 mps 662 mmHg 96%
17:00 +1°C° 0.3 mm 2 mps 663 mmHg 97%
18:00 +1°C° 0.3 mm 2 mps 663 mmHg 97%
19:00 +1°C° 0.2 mm 2 mps 663 mmHg 97%
20:00 +2°C° 0.2 mm 1 mps 664 mmHg 97%
21:00 +1°C° 0.2 mm 1 mps 664 mmHg 97%
22:00 +2°C° 0.3 mm 1 mps 664 mmHg 97%
23:00 +2°C° 0.3 mm 1 mps 664 mmHg 97%

7 December, Monday

Time Temperature Precipitation Wind Pressure Humidity
00:00 +2°C° 0.3 mm 1 mps 664 mmHg 97%
01:00 +2°C° 0.4 mm 1 mps 664 mmHg 97%
02:00 +2°C° 0.4 mm 1 mps 664 mmHg 97%
03:00 +2°C° 0.4 mm 1 mps 664 mmHg 98%
04:00 +2°C° 0.2 mm 1 mps 664 mmHg 98%
05:00 +3°C° 0.2 mm 1 mps 664 mmHg 97%
06:00 +3°C° 0.2 mm 1 mps 664 mmHg 97%
07:00 +3°C° 0.3 mm 1 mps 664 mmHg 98%
08:00 +3°C° 0.3 mm 1 mps 665 mmHg 98%
09:00 +3°C° 0.3 mm 1 mps 665 mmHg 98%
10:00 +4°C° 0.1 mm 1 mps 665 mmHg 97%
11:00 +4°C° 0.1 mm 1 mps 665 mmHg 96%
12:00 +3°C° 0.1 mm 2 mps 665 mmHg 95%
13:00 +3°C° 0 mm 2 mps 664 mmHg 96%
14:00 +3°C° 0 mm 2 mps 664 mmHg 96%
15:00 +2°C° 0 mm 3 mps 663 mmHg 96%
16:00 +2°C° 0.2 mm 3 mps 663 mmHg 96%
17:00 +2°C° 0.2 mm 3 mps 662 mmHg 96%
18:00 +2°C° 0.2 mm 3 mps 662 mmHg 96%
19:00 +1°C° 0.6 mm 4 mps 661 mmHg 96%
20:00 +1°C° 0.6 mm 4 mps 660 mmHg 96%
21:00 +2°C° 0.6 mm 5 mps 660 mmHg 96%
22:00 +3°C° 1.2 mm 4 mps 659 mmHg 96%
23:00 +3°C° 1.2 mm 4 mps 658 mmHg 96%
Show more